UAL2619 KBOS-KEWR

Flight info

Callsign UAL2619
Flight time 1h 13m
Altitude 16000
Route PATSS7 PATSS NELIE FLOSI4
Aircraft B736/M-SDE2E3FGHIRWXY/LB1

Departure

Time 2026-05-04 23:48
Airport Boston Logan International Airport (KBOS)

Arrival

Time 2026-05-05 01:01
Airport Newark Liberty International Airport (KEWR)
Time Latitude Longitude Altitude Speed Heading
2026-05-04 23:21 42.36323 -71.01969 28 ft 0 kts 146°
2026-05-04 23:34 42.36336 -71.01982 24 ft 2 kts 157°
2026-05-04 23:34 42.36351 -71.01981 30 ft 1 kts 236°
2026-05-04 23:38 42.36326 -71.02027 27 ft 12 kts 225°
2026-05-04 23:38 42.36283 -71.02124 24 ft 12 kts 253°
2026-05-04 23:38 42.36263 -71.02211 24 ft 0 kts 249°
2026-05-04 23:39 42.36236 -71.02257 25 ft 12 kts 219°
2026-05-04 23:40 42.36195 -71.02347 27 ft 9 kts 204°
2026-05-04 23:40 42.36179 -71.02349 24 ft 0 kts 183°
2026-05-04 23:41 42.36115 -71.02341 27 ft 14 kts 159°
2026-05-04 23:42 42.36037 -71.02268 24 ft 13 kts 123°
2026-05-04 23:42 42.35989 -71.02163 26 ft 13 kts 122°
2026-05-04 23:42 42.35943 -71.02056 27 ft 14 kts 121°
2026-05-04 23:42 42.35886 -71.01927 24 ft 18 kts 119°
2026-05-04 23:43 42.35842 -71.01769 26 ft 18 kts 104°
2026-05-04 23:43 42.35824 -71.01609 24 ft 17 kts 80°
2026-05-04 23:43 42.35921 -71.01534 24 ft 16 kts 19°
2026-05-04 23:43 42.36026 -71.01483 24 ft 16 kts 20°
2026-05-04 23:44 42.36132 -71.01434 24 ft 17 kts 15°
2026-05-04 23:44 42.36244 -71.01381 25 ft 17 kts 18°
2026-05-04 23:44 42.36351 -71.01325 26 ft 16 kts 18°
2026-05-04 23:44 42.36455 -71.01279 26 ft 16 kts 20°
2026-05-04 23:45 42.36570 -71.01217 27 ft 19 kts 17°
2026-05-04 23:45 42.36692 -71.01161 24 ft 18 kts 20°
2026-05-04 23:45 42.36808 -71.01171 24 ft 17 kts 322°
2026-05-04 23:45 42.36900 -71.01219 24 ft 13 kts 53°
2026-05-04 23:46 42.36978 -71.01121 26 ft 21 kts 32°
2026-05-04 23:46 42.37111 -71.01029 24 ft 21 kts 25°
2026-05-04 23:46 42.37243 -71.00942 27 ft 21 kts 26°
2026-05-04 23:46 42.37375 -71.00870 25 ft 20 kts 22°
2026-05-04 23:47 42.37505 -71.00808 27 ft 20 kts 19°
2026-05-04 23:47 42.37632 -71.00748 28 ft 19 kts 19°
2026-05-04 23:47 42.37753 -71.00688 24 ft 18 kts 19°
2026-05-04 23:47 42.37833 -71.00585 24 ft 18 kts 99°
2026-05-04 23:48 42.37762 -71.00493 26 ft 16 kts 191°
2026-05-04 23:48 42.37482 -71.00615 26 ft 87 kts 203°
2026-05-04 23:48 42.36678 -71.00997 124 ft 152 kts 198°
2026-05-04 23:48 42.35592 -71.01402 847 ft 174 kts 197°
2026-05-04 23:49 42.34456 -71.02001 1955 ft 164 kts 197°
2026-05-04 23:49 42.33310 -71.01711 3012 ft 186 kts 153°
2026-05-04 23:49 42.32410 -71.00230 3331 ft 222 kts 128°
2026-05-04 23:49 42.31818 -70.99046 3484 ft 238 kts 131°
2026-05-04 23:50 42.30987 -70.97001 3828 ft 262 kts 105°
2026-05-04 23:50 42.30867 -70.94510 4429 ft 270 kts 91°
2026-05-04 23:50 42.31122 -70.91979 5014 ft 275 kts 76°
2026-05-04 23:50 42.31614 -70.89470 5678 ft 276 kts 73°
2026-05-04 23:51 42.32102 -70.86926 6438 ft 278 kts 75°
2026-05-04 23:51 42.32571 -70.84390 7230 ft 279 kts 74°
2026-05-04 23:51 42.33030 -70.81842 7963 ft 281 kts 76°
2026-05-04 23:51 42.33001 -70.79207 8653 ft 284 kts 107°
2026-05-04 23:52 42.32262 -70.76731 9372 ft 286 kts 115°
2026-05-04 23:52 42.31352 -70.74326 9966 ft 289 kts 127°
2026-05-04 23:52 42.29864 -70.72557 10541 ft 284 kts 158°
2026-05-04 23:52 42.28034 -70.71859 11169 ft 275 kts 181°
2026-05-04 23:53 42.26150 -70.72009 11786 ft 269 kts 192°
2026-05-04 23:53 42.24291 -70.72350 12383 ft 270 kts 193°
2026-05-04 23:53 42.22423 -70.72696 12970 ft 271 kts 193°
2026-05-04 23:53 42.20605 -70.73256 13523 ft 266 kts 210°
2026-05-04 23:54 42.19189 -70.74774 14001 ft 260 kts 234°
2026-05-04 23:54 42.18323 -70.76888 14470 ft 259 kts 254°
2026-05-04 23:54 42.17946 -70.79268 14916 ft 261 kts 260°
2026-05-04 23:54 42.17632 -70.81680 15385 ft 262 kts 261°
2026-05-04 23:55 42.17319 -70.84103 15823 ft 263 kts 261°
2026-05-04 23:55 42.16993 -70.86564 16039 ft 274 kts 261°
2026-05-04 23:55 42.16271 -70.91896 16067 ft 303 kts 260°
2026-05-04 23:56 42.15890 -70.94754 16066 ft 316 kts 261°
2026-05-04 23:56 42.15586 -70.97735 16059 ft 326 kts 263°
2026-05-04 23:56 42.15319 -71.00818 16053 ft 336 kts 264°
2026-05-04 23:56 42.15054 -71.03981 16056 ft 344 kts 264°
2026-05-04 23:57 42.14780 -71.07211 16060 ft 350 kts 263°
2026-05-04 23:57 42.14495 -71.10498 16061 ft 356 kts 263°
2026-05-04 23:57 42.14201 -71.13835 16057 ft 360 kts 263°
2026-05-04 23:57 42.13900 -71.17208 16049 ft 364 kts 263°
2026-05-04 23:58 42.13594 -71.20599 16048 ft 367 kts 263°
2026-05-04 23:58 42.13283 -71.24024 16049 ft 369 kts 263°
2026-05-04 23:58 42.12969 -71.27469 16040 ft 371 kts 263°
2026-05-04 23:58 42.12652 -71.30930 16046 ft 373 kts 263°
2026-05-04 23:59 42.12332 -71.34406 16048 ft 374 kts 263°
2026-05-04 23:59 42.12012 -71.37881 16050 ft 375 kts 263°
2026-05-04 23:59 42.11690 -71.41372 16048 ft 376 kts 263°
2026-05-04 23:59 42.11366 -71.44865 16051 ft 376 kts 263°
2026-05-05 00:00 42.11041 -71.48359 16037 ft 376 kts 263°
2026-05-05 00:00 42.10825 -71.50675 16044 ft 377 kts 263°
2026-05-05 00:00 42.10386 -71.55363 16053 ft 377 kts 263°
2026-05-05 00:00 42.10061 -71.58820 16050 ft 377 kts 263°
2026-05-05 00:01 42.09732 -71.62326 16053 ft 378 kts 263°
2026-05-05 00:01 42.09400 -71.65838 16065 ft 378 kts 263°
2026-05-05 00:01 42.09066 -71.69348 16067 ft 378 kts 263°
2026-05-05 00:01 42.08700 -71.72857 16060 ft 379 kts 261°
2026-05-05 00:02 42.08220 -71.76345 16056 ft 379 kts 259°
2026-05-05 00:02 42.07692 -71.79819 16054 ft 379 kts 259°
2026-05-05 00:02 42.07152 -71.83292 16050 ft 379 kts 259°
2026-05-05 00:02 42.06615 -71.86766 16045 ft 379 kts 259°
2026-05-05 00:03 42.06085 -71.90239 16044 ft 379 kts 259°
2026-05-05 00:03 42.05560 -71.93713 16044 ft 379 kts 259°
2026-05-05 00:03 42.05033 -71.97198 16058 ft 382 kts 259°
2026-05-05 00:03 42.04501 -72.00711 16048 ft 384 kts 259°
2026-05-05 00:04 42.03967 -72.04250 16048 ft 387 kts 259°
2026-05-05 00:04 42.03434 -72.07801 16050 ft 388 kts 259°
2026-05-05 00:04 42.02898 -72.11368 16050 ft 389 kts 259°
2026-05-05 00:04 42.02367 -72.14905 16042 ft 390 kts 259°
2026-05-05 00:05 42.01827 -72.18491 16039 ft 391 kts 259°
2026-05-05 00:05 42.01287 -72.22074 16037 ft 392 kts 259°
2026-05-05 00:05 42.00744 -72.25662 16038 ft 392 kts 259°
2026-05-05 00:05 42.00198 -72.29262 16034 ft 393 kts 259°
2026-05-05 00:06 41.99649 -72.32867 16030 ft 393 kts 259°
2026-05-05 00:06 41.99100 -72.36467 16034 ft 393 kts 259°
2026-05-05 00:06 41.98550 -72.40070 16019 ft 394 kts 259°
2026-05-05 00:06 41.97998 -72.43675 16032 ft 394 kts 259°
2026-05-05 00:07 41.97444 -72.47284 16031 ft 394 kts 259°
2026-05-05 00:07 41.96889 -72.50887 16033 ft 394 kts 259°
2026-05-05 00:07 41.96334 -72.54490 16037 ft 394 kts 259°
2026-05-05 00:07 41.95776 -72.58097 16036 ft 394 kts 259°
2026-05-05 00:08 41.95226 -72.61654 16040 ft 394 kts 259°
2026-05-05 00:08 41.94665 -72.65266 16037 ft 394 kts 259°
2026-05-05 00:08 41.94103 -72.68863 16036 ft 394 kts 259°
2026-05-05 00:08 41.93416 -72.72422 16035 ft 394 kts 255°
2026-05-05 00:09 41.92590 -72.75933 16038 ft 394 kts 253°
2026-05-05 00:09 41.91718 -72.79425 16026 ft 394 kts 253°
2026-05-05 00:09 41.90838 -72.82918 16034 ft 394 kts 253°
2026-05-05 00:09 41.89969 -72.86406 16031 ft 394 kts 253°
2026-05-05 00:10 41.89111 -72.89899 16040 ft 394 kts 253°
2026-05-05 00:10 41.88261 -72.93394 16036 ft 394 kts 253°
2026-05-05 00:10 41.87415 -72.96890 16051 ft 394 kts 254°
2026-05-05 00:10 41.86572 -73.00391 16048 ft 394 kts 253°
2026-05-05 00:11 41.85730 -73.03889 16044 ft 394 kts 253°
2026-05-05 00:11 41.84887 -73.07386 16039 ft 394 kts 253°
2026-05-05 00:11 41.84044 -73.10880 16054 ft 394 kts 253°
2026-05-05 00:11 41.83202 -73.14364 16150 ft 391 kts 253°
2026-05-05 00:12 41.82384 -73.17738 16595 ft 380 kts 253°
2026-05-05 00:12 41.81585 -73.21020 16891 ft 348 kts 254°
2026-05-05 00:12 41.80878 -73.23917 17057 ft 314 kts 254°
2026-05-05 00:12 41.80230 -73.26574 17237 ft 292 kts 254°
2026-05-05 00:13 41.79599 -73.29176 17073 ft 296 kts 254°
2026-05-05 00:13 41.78975 -73.31744 16927 ft 280 kts 254°
2026-05-05 00:13 41.78389 -73.34146 16806 ft 263 kts 254°
2026-05-05 00:13 41.77838 -73.36402 16697 ft 247 kts 255°
2026-05-05 00:14 41.77319 -73.38524 16571 ft 232 kts 255°
2026-05-05 00:14 41.76831 -73.40518 16468 ft 218 kts 255°
2026-05-05 00:14 41.76374 -73.42386 16352 ft 205 kts 255°
2026-05-05 00:14 41.75934 -73.44183 16073 ft 200 kts 255°
2026-05-05 00:15 41.75507 -73.45926 15786 ft 195 kts 255°
2026-05-05 00:15 41.74934 -73.47550 15542 ft 197 kts 237°
2026-05-05 00:15 41.74305 -73.49132 15305 ft 192 kts 259°
2026-05-05 00:15 41.73984 -73.50884 15083 ft 197 kts 258°
2026-05-05 00:16 41.73629 -73.52675 14834 ft 200 kts 258°
2026-05-05 00:16 41.73251 -73.54471 14589 ft 200 kts 257°
2026-05-05 00:16 41.72859 -73.56254 14347 ft 199 kts 256°
2026-05-05 00:16 41.72459 -73.58011 14098 ft 195 kts 256°
2026-05-05 00:17 41.72059 -73.59727 13846 ft 191 kts 256°
2026-05-05 00:17 41.71661 -73.61410 13611 ft 189 kts 256°
2026-05-05 00:17 41.71266 -73.63063 13344 ft 188 kts 255°
2026-05-05 00:17 41.70864 -73.64725 13082 ft 187 kts 255°
2026-05-05 00:18 41.70461 -73.66385 12808 ft 188 kts 255°
2026-05-05 00:18 41.70055 -73.68046 12544 ft 187 kts 255°
2026-05-05 00:18 41.69647 -73.69707 12291 ft 188 kts 255°
2026-05-05 00:18 41.69238 -73.71368 12044 ft 188 kts 255°
2026-05-05 00:19 41.68825 -73.73040 11789 ft 189 kts 255°
2026-05-05 00:19 41.68411 -73.74713 11537 ft 190 kts 255°
2026-05-05 00:19 41.67996 -73.76386 11276 ft 190 kts 255°
2026-05-05 00:19 41.67579 -73.78063 11044 ft 190 kts 255°
2026-05-05 00:20 41.67161 -73.79745 10791 ft 191 kts 255°
2026-05-05 00:20 41.66745 -73.81415 10546 ft 191 kts 255°
2026-05-05 00:20 41.66333 -73.83103 10304 ft 191 kts 255°
2026-05-05 00:20 41.65931 -73.84802 10079 ft 192 kts 256°
2026-05-05 00:21 41.65531 -73.86502 9823 ft 192 kts 256°
2026-05-05 00:21 41.65129 -73.88206 9574 ft 192 kts 255°
2026-05-05 00:21 41.64728 -73.89907 9314 ft 192 kts 255°
2026-05-05 00:21 41.64326 -73.91607 9050 ft 191 kts 255°
2026-05-05 00:22 41.63929 -73.93287 8789 ft 187 kts 255°
2026-05-05 00:22 41.63540 -73.94926 8517 ft 183 kts 255°
2026-05-05 00:22 41.63160 -73.96532 8268 ft 181 kts 255°
2026-05-05 00:22 41.62791 -73.98085 8268 ft 157 kts 255°
2026-05-05 00:23 41.62449 -73.99520 8130 ft 174 kts 254°
2026-05-05 00:23 41.62073 -74.01103 7945 ft 183 kts 254°
2026-05-05 00:23 41.61684 -74.02742 7692 ft 186 kts 253°
2026-05-05 00:23 41.61293 -74.04390 7435 ft 184 kts 254°
2026-05-05 00:24 41.60910 -74.06001 7178 ft 179 kts 253°
2026-05-05 00:24 41.60537 -74.07571 7025 ft 176 kts 253°
2026-05-05 00:24 41.60161 -74.09152 7000 ft 179 kts 253°
2026-05-05 00:24 41.59784 -74.10734 6965 ft 177 kts 253°
2026-05-05 00:25 41.59414 -74.12286 6958 ft 174 kts 253°
2026-05-05 00:25 41.59045 -74.13834 6966 ft 176 kts 253°
2026-05-05 00:25 41.58672 -74.15394 6960 ft 176 kts 253°
2026-05-05 00:25 41.58301 -74.16947 6958 ft 175 kts 253°
2026-05-05 00:26 41.57931 -74.18494 6953 ft 175 kts 253°
2026-05-05 00:26 41.57546 -74.20107 6984 ft 196 kts 253°
2026-05-05 00:26 41.57099 -74.21982 6990 ft 229 kts 253°
2026-05-05 00:26 41.56595 -74.24087 6958 ft 244 kts 253°
2026-05-05 00:27 41.56062 -74.26305 6962 ft 253 kts 253°
2026-05-05 00:27 41.55527 -74.28525 6960 ft 249 kts 253°
2026-05-05 00:27 41.55011 -74.30671 6954 ft 243 kts 252°
2026-05-05 00:27 41.54212 -74.32643 6952 ft 240 kts 229°
2026-05-05 00:28 41.52884 -74.34005 6957 ft 247 kts 211°
2026-05-05 00:28 41.51253 -74.34853 6968 ft 255 kts 202°
2026-05-05 00:28 41.49570 -74.35550 6962 ft 258 kts 202°
2026-05-05 00:28 41.47860 -74.36250 6980 ft 255 kts 201°
2026-05-05 00:29 41.46183 -74.36951 6965 ft 250 kts 202°
2026-05-05 00:29 41.44532 -74.37652 6970 ft 248 kts 202°
2026-05-05 00:29 41.42891 -74.38356 6970 ft 249 kts 202°
2026-05-05 00:29 41.41231 -74.39071 6892 ft 252 kts 202°
2026-05-05 00:30 41.39557 -74.39789 6769 ft 253 kts 202°
2026-05-05 00:30 41.37882 -74.40511 6626 ft 253 kts 202°
2026-05-05 00:30 41.36222 -74.41224 6479 ft 249 kts 202°
2026-05-05 00:30 41.34580 -74.41929 6305 ft 246 kts 202°
2026-05-05 00:31 41.32960 -74.42625 6119 ft 244 kts 202°
2026-05-05 00:31 41.31347 -74.43318 6031 ft 245 kts 202°
2026-05-05 00:31 41.29716 -74.44013 5995 ft 247 kts 200°
2026-05-05 00:31 41.27997 -74.44132 5975 ft 253 kts 173°
2026-05-05 00:32 41.26418 -74.43118 5992 ft 254 kts 150°
2026-05-05 00:32 41.25013 -74.41702 5982 ft 253 kts 148°
2026-05-05 00:32 41.23627 -74.40255 5993 ft 254 kts 148°
2026-05-05 00:32 41.22233 -74.38791 5994 ft 258 kts 148°
2026-05-05 00:33 41.20789 -74.37367 5968 ft 260 kts 148°
2026-05-05 00:33 41.19390 -74.35904 5982 ft 258 kts 148°
2026-05-05 00:33 41.17981 -74.34444 5966 ft 256 kts 147°
2026-05-05 00:33 41.16575 -74.33019 5982 ft 254 kts 147°
2026-05-05 00:34 41.15157 -74.31562 5956 ft 262 kts 142°
2026-05-05 00:34 41.13752 -74.30033 5988 ft 262 kts 150°
2026-05-05 00:34 41.12264 -74.28621 5990 ft 263 kts 148°
2026-05-05 00:34 41.11280 -74.27636 5993 ft 262 kts 148°
2026-05-05 00:35 41.09832 -74.26170 5992 ft 261 kts 147°
2026-05-05 00:35 41.08391 -74.24704 5917 ft 263 kts 147°
2026-05-05 00:35 41.06934 -74.23232 5602 ft 267 kts 147°
2026-05-05 00:35 41.05462 -74.21751 5322 ft 264 kts 147°
2026-05-05 00:36 41.04004 -74.20284 5048 ft 262 kts 148°
2026-05-05 00:36 41.02561 -74.18815 4770 ft 261 kts 147°
2026-05-05 00:36 41.01131 -74.17352 4497 ft 259 kts 147°
2026-05-05 00:36 40.99716 -74.15903 4210 ft 256 kts 147°
2026-05-05 00:37 40.98317 -74.14475 4040 ft 249 kts 148°
2026-05-05 00:37 40.96982 -74.13093 3994 ft 237 kts 147°
2026-05-05 00:37 40.95720 -74.11774 3980 ft 225 kts 147°
2026-05-05 00:37 40.94507 -74.10497 3989 ft 221 kts 147°
2026-05-05 00:38 40.93304 -74.09226 3871 ft 223 kts 147°
2026-05-05 00:38 40.92093 -74.07946 3748 ft 221 kts 147°
2026-05-05 00:38 40.90903 -74.06683 3598 ft 218 kts 149°
2026-05-05 00:38 40.89578 -74.05873 3428 ft 206 kts 176°
2026-05-05 00:39 40.88170 -74.05641 3277 ft 204 kts 178°
2026-05-05 00:39 40.86765 -74.05497 3077 ft 200 kts 192°
2026-05-05 00:39 40.85583 -74.06201 3024 ft 183 kts 213°
2026-05-05 00:39 40.84452 -74.06863 3013 ft 176 kts 202°
2026-05-05 00:40 40.83327 -74.07500 2943 ft 176 kts 207°
2026-05-05 00:40 40.82220 -74.08201 2885 ft 176 kts 208°
2026-05-05 00:40 40.81114 -74.08906 2782 ft 176 kts 208°
2026-05-05 00:40 40.80003 -74.09616 2559 ft 175 kts 208°
2026-05-05 00:41 40.78938 -74.10296 2330 ft 166 kts 208°
2026-05-05 00:41 40.77928 -74.10941 2110 ft 157 kts 207°
2026-05-05 00:41 40.76955 -74.11562 1937 ft 154 kts 207°
2026-05-05 00:41 40.75991 -74.12188 1656 ft 153 kts 209°
2026-05-05 00:42 40.75052 -74.12808 1431 ft 145 kts 205°
2026-05-05 00:42 40.74203 -74.13309 1187 ft 127 kts 208°
2026-05-05 00:42 40.73418 -74.13805 872 ft 129 kts 205°
2026-05-05 00:42 40.72617 -74.14336 693 ft 125 kts 208°
2026-05-05 00:43 40.71859 -74.14828 551 ft 115 kts 207°
2026-05-05 00:43 40.71102 -74.15260 336 ft 119 kts 208°
2026-05-05 00:43 40.70392 -74.15751 189 ft 109 kts 207°
2026-05-05 00:43 40.69730 -74.16173 50 ft 102 kts 205°
2026-05-05 00:44 40.69060 -74.16595 142 ft 129 kts 205°
2026-05-05 00:44 40.68161 -74.17229 461 ft 154 kts 214°
2026-05-05 00:44 40.67263 -74.18031 773 ft 161 kts 215°
2026-05-05 00:44 40.66312 -74.18886 1094 ft 169 kts 216°
2026-05-05 00:45 40.65302 -74.19895 1136 ft 197 kts 217°
2026-05-05 00:45 40.64085 -74.20933 1231 ft 227 kts 211°
2026-05-05 00:45 40.62648 -74.22109 1262 ft 256 kts 212°
2026-05-05 00:45 40.61078 -74.23407 1549 ft 273 kts 213°
2026-05-05 00:46 40.59465 -74.24820 1926 ft 284 kts 213°
2026-05-05 00:46 40.57700 -74.26085 2310 ft 295 kts 199°
2026-05-05 00:46 40.55623 -74.26395 2658 ft 310 kts 177°
2026-05-05 00:46 40.53505 -74.25580 2980 ft 327 kts 156°
2026-05-05 00:47 40.51651 -74.23747 3017 ft 352 kts 136°
2026-05-05 00:47 40.50332 -74.20997 3014 ft 357 kts 113°
2026-05-05 00:47 40.49700 -74.17914 3011 ft 338 kts 104°
2026-05-05 00:47 40.49417 -74.14932 3014 ft 321 kts 94°
2026-05-05 00:48 40.49432 -74.12079 3009 ft 303 kts 91°
2026-05-05 00:48 40.49759 -74.09440 3004 ft 291 kts 69°
2026-05-05 00:48 40.50880 -74.07325 3023 ft 278 kts 39°
2026-05-05 00:48 40.52473 -74.05914 3026 ft 276 kts 29°
2026-05-05 00:49 40.54135 -74.04643 3024 ft 276 kts 27°
2026-05-05 00:49 40.55807 -74.03392 3040 ft 275 kts 27°
2026-05-05 00:49 40.57461 -74.02162 3037 ft 276 kts 27°
2026-05-05 00:49 40.59129 -74.00926 3034 ft 277 kts 27°
2026-05-05 00:50 40.60811 -73.99675 3028 ft 277 kts 26°
2026-05-05 00:50 40.62551 -73.98590 3029 ft 275 kts 19°
2026-05-05 00:50 40.64322 -73.97636 3025 ft 275 kts 18°
2026-05-05 00:50 40.66096 -73.96703 3021 ft 273 kts 18°
2026-05-05 00:51 40.67870 -73.95777 3019 ft 274 kts 18°
2026-05-05 00:51 40.69625 -73.94867 3033 ft 274 kts 18°
2026-05-05 00:51 40.71417 -73.93941 3021 ft 276 kts 18°
2026-05-05 00:51 40.73203 -73.93019 3003 ft 275 kts 18°
2026-05-05 00:52 40.74967 -73.92103 2998 ft 275 kts 18°
2026-05-05 00:52 40.76745 -73.91174 3007 ft 274 kts 18°
2026-05-05 00:52 40.78520 -73.90248 2991 ft 274 kts 18°
2026-05-05 00:52 40.80300 -73.89324 2993 ft 273 kts 18°
2026-05-05 00:53 40.82070 -73.88407 2990 ft 273 kts 18°
2026-05-05 00:53 40.83847 -73.87490 2996 ft 273 kts 18°
2026-05-05 00:53 40.85619 -73.86682 2991 ft 271 kts
2026-05-05 00:53 40.87450 -73.86821 2998 ft 259 kts 335°
2026-05-05 00:54 40.88915 -73.88065 2990 ft 245 kts 304°
2026-05-05 00:54 40.89847 -73.89903 2989 ft 240 kts 294°
2026-05-05 00:54 40.90622 -73.91850 2999 ft 236 kts 285°
2026-05-05 00:54 40.91108 -73.93896 2973 ft 235 kts 279°
2026-05-05 00:55 40.91465 -73.96007 2992 ft 236 kts 277°
2026-05-05 00:55 40.91787 -73.98142 2987 ft 235 kts 274°
2026-05-05 00:55 40.91659 -74.00164 2974 ft 215 kts 244°
2026-05-05 00:55 40.90773 -74.01614 2981 ft 196 kts 216°
2026-05-05 00:56 40.89670 -74.02595 2976 ft 188 kts 213°
2026-05-05 00:56 40.88583 -74.03515 2985 ft 184 kts 217°
2026-05-05 00:56 40.87614 -74.04607 2996 ft 181 kts 221°
2026-05-05 00:56 40.86598 -74.05581 2978 ft 180 kts 209°
2026-05-05 00:57 40.85490 -74.06359 3008 ft 185 kts 210°
2026-05-05 00:57 40.84335 -74.07165 2929 ft 187 kts 209°
2026-05-05 00:57 40.83213 -74.07915 2827 ft 174 kts 208°
2026-05-05 00:57 40.82173 -74.08594 2710 ft 166 kts 208°
2026-05-05 00:58 40.81141 -74.09261 2509 ft 163 kts 208°
2026-05-05 00:58 40.80140 -74.09904 2286 ft 155 kts 207°
2026-05-05 00:58 40.79195 -74.10509 2066 ft 146 kts 207°
2026-05-05 00:58 40.78306 -74.11077 1862 ft 137 kts 208°
2026-05-05 00:59 40.77476 -74.11608 1677 ft 128 kts 207°
2026-05-05 00:59 40.76682 -74.12116 1486 ft 130 kts 207°
2026-05-05 00:59 40.75879 -74.12629 1247 ft 125 kts 208°
2026-05-05 00:59 40.74954 -74.13222 1250 ft 157 kts 206°
2026-05-05 01:00 40.73973 -74.13864 899 ft 158 kts 205°
2026-05-05 01:00 40.72937 -74.14521 643 ft 170 kts 205°
2026-05-05 01:00 40.71874 -74.15192 419 ft 164 kts 207°
2026-05-05 01:00 40.70872 -74.15838 229 ft 163 kts 204°
2026-05-05 01:01 40.69800 -74.16516 53 ft 172 kts 205°
2026-05-05 01:01 40.68787 -74.17145 23 ft 147 kts 205°
2026-05-05 01:01 40.68118 -74.17570 19 ft 83 kts 203°
2026-05-05 01:01 40.67829 -74.17766 19 ft 20 kts 209°
2026-05-05 01:02 40.67803 -74.17885 22 ft 13 kts 297°
2026-05-05 01:02 40.67853 -74.18020 23 ft 15 kts 300°
2026-05-05 01:02 40.67888 -74.18118 22 ft 12 kts 297°
2026-05-05 01:02 40.67913 -74.18213 22 ft 8 kts 295°